Tulsa Jones, OK

9:32 PM CST on February 21, 2018 (GMT -0600)
Jones Jr.

Weather History for KRVS - November, 2011

Change the Weather History Date:

Saturday, November 5, 2011

  Actual Average (KTUL) Record (KTUL)
Temperature  
Mean Temperature 52 °F -  
Max Temperature 62 °F 62 °F 87 °F (1914)
Min Temperature 44 °F 41 °F 25 °F (1976)
Degree Days  
Heating Degree Days 12    
Growing Degree Days 2 (Base 50)    
Moisture  
Dew Point 42 °F    
Average Humidity 70    
Maximum Humidity 87    
Minimum Humidity 48    
Precipitation  
Precipitation 0.00 in - - ()
Sea Level Pressure  
Sea Level Pressure 30.00 in    
Wind  
Wind Speed 8 mph (SSE)    
Max Wind Speed 20 mph    
Max Gust Speed 26 mph    
Visibility 10 miles    
Events      
Averages and records for this station are not official NWS values.
T = Trace of Precipitation, MM = Missing Value Source: NWS Daily Summary

Daily Weather History Graph

Daily Weather History Graph

Search for Another Location

Airport or City:

Trip Planner

Search our weather history database for the weather conditions in past years. The results will help you decide how hot, cold, wet, or windy it might be!

Date:

Astronomy

Nov. 05, 2011 Rise Set
Actual Time 7:50 AM CDT 6:24 PM CDT
Civil Twilight 7:23 AM CDT 6:51 PM CDT
Nautical Twilight 6:52 AM CDT 7:21 PM CDT
Astronomical Twilight 6:22 AM CDT 7:51 PM CDT
Moon 3:35 PM CDT (11/5) 3:09 AM CDT (11/5)
Length of Visible Light 11h 27m
Length of Day
10h 34m
Waxing Gibbous, 78% of the Moon is Illuminated
Nov 5
Waxing Gibbous
Nov 10
Full
Nov 18
Last Quarter
Nov 25
New
Dec 2
First Quarter

Hourly Weather History & Observations

Time (CDT) Temp. Windchill Dew Point Humidity Pressure Visibility Wind Dir Wind Speed Gust Speed Precip Events Conditions
12:53 AM 48.9 °F - 39.9 °F 71% 30.10 in 10.0 mi South 3.5 mph - N/A   Clear
1:53 AM 48.0 °F - 41.0 °F 77% 30.09 in 10.0 mi SSE 3.5 mph - N/A   Clear
2:53 AM 48.0 °F - 41.0 °F 77% 30.09 in 10.0 mi South 8.1 mph - N/A   Clear
3:53 AM 46.9 °F - 41.0 °F 80% 30.08 in 10.0 mi SSE 5.8 mph - N/A   Clear
4:53 AM 46.9 °F - 41.0 °F 80% 30.09 in 10.0 mi South 5.8 mph - N/A   Clear
5:53 AM 45.0 °F 41.2 °F 41.0 °F 86% 30.09 in 10.0 mi SSE 6.9 mph - N/A   Clear
6:31 AM 44.6 °F 41.4 °F 41.0 °F 87% 30.08 in 10.0 mi South 5.8 mph - N/A   Mostly Cloudy
6:53 AM 45.0 °F 40.6 °F 41.0 °F 86% 30.09 in 10.0 mi SSE 8.1 mph - N/A   Overcast
7:15 AM 46.4 °F 42.4 °F 41.0 °F 81% 30.08 in 10.0 mi SSE 8.1 mph - N/A   Overcast
7:51 AM 46.4 °F 41.9 °F 42.8 °F 87% 30.07 in 10.0 mi SSE 9.2 mph - N/A   Overcast
7:53 AM 46.0 °F 41.9 °F 42.1 °F 86% 30.09 in 10.0 mi SSE 8.1 mph - N/A   Overcast
8:23 AM 46.4 °F 41.5 °F 42.8 °F 87% 30.07 in 8.0 mi SSE 10.4 mph - N/A   Overcast
8:53 AM 46.9 °F - 42.1 °F 83% 30.09 in 9.0 mi SSE 10.4 mph - N/A   Overcast
9:53 AM 48.9 °F - 42.1 °F 77% 30.08 in 10.0 mi SSE 11.5 mph 19.6 mph N/A   Overcast
10:53 AM 51.1 °F - 43.0 °F 74% 30.06 in 10.0 mi South 12.7 mph 18.4 mph N/A   Overcast
11:53 AM 54.0 °F - 43.0 °F 66% 30.05 in 10.0 mi South 16.1 mph 23.0 mph N/A   Overcast
12:51 PM 57.2 °F - 42.8 °F 59% 29.99 in 10.0 mi South 16.1 mph 25.3 mph N/A   Scattered Clouds
12:53 PM 57.9 °F - 42.1 °F 56% 30.00 in 10.0 mi South 19.6 mph 25.3 mph N/A   Scattered Clouds
1:53 PM 59.0 °F - 42.1 °F 53% 29.95 in 10.0 mi SSE 15.0 mph 26.5 mph N/A   Clear
3:53 PM 61.0 °F - 41.0 °F 48% 29.86 in 10.0 mi SSE 12.7 mph 20.7 mph N/A   Clear
4:53 PM 60.1 °F - 42.1 °F 51% 29.85 in 10.0 mi SSE 15.0 mph 23.0 mph N/A   Clear
5:53 PM 60.1 °F - 42.1 °F 51% 29.85 in 10.0 mi SSE 10.4 mph 19.6 mph N/A   Clear
6:53 PM 59.0 °F - 42.1 °F 53% 29.84 in 10.0 mi South 8.1 mph - N/A   Clear
7:53 PM 57.9 °F - 42.1 °F 56% 29.86 in 10.0 mi South 9.2 mph - N/A   Clear
8:53 PM 57.0 °F - 42.1 °F 57% 29.88 in 10.0 mi SSE 8.1 mph - N/A   Clear
9:53 PM 55.9 °F - 42.1 °F 60% 29.88 in 10.0 mi South 8.1 mph - N/A   Clear
10:53 PM 55.9 °F - 43.0 °F 62% 29.87 in 10.0 mi South 6.9 mph - N/A   Clear
11:53 PM 55.9 °F - 43.0 °F 62% 29.87 in 10.0 mi South 6.9 mph - N/A   Clear